Location: Sperry Observatory
(40.6664°N, 74.3236°W)
Time: 07:17:45
(UTC-04:00)

UOSAT-12 - Visible Passes

Search period start: 18 October 2017 00:00
Search period end: 28 October 2017 00:00
Orbit: 596 x 657 km, 64.6° (Epoch: 18 October)

Date Brightness Start Highest point End Pass type
(mag) Time Alt. Az. Time Alt. Az. Time Alt. Az.
20 Oct 10.3 05:46:55 10° SE 05:49:00 13° ESE 05:51:07 10° E visible
21 Oct 9.2 06:04:31 10° S 06:08:26 29° ESE 06:12:25 10° NE visible
22 Oct 7.6 06:23:32 10° SSW 06:28:02 65° ESE 06:32:38 10° NE visible
23 Oct 10.0 05:05:33 10° SE 05:08:15 16° ESE 05:10:57 10° ENE visible
23 Oct 7.2 06:43:20 10° SW 06:47:49 58° NW 06:52:26 10° NNE visible
24 Oct 8.7 05:23:36 10° S 05:27:42 34° ESE 05:31:52 10° NE visible
25 Oct 7.2 05:43:22 13° SSW 05:47:20 78° ESE 05:51:59 10° NE visible
26 Oct 9.5 04:26:46 18° ESE 04:27:28 19° ESE 04:30:39 10° ENE visible
26 Oct 7.3 06:04:08 19° WSW 06:07:10 49° NW 06:11:42 10° NNE visible
27 Oct 8.3 04:47:13 40° ESE 04:47:13 40° ESE 04:51:19 10° NE visible
27 Oct 8.2 06:24:34 16° W 06:27:12 25° NW 06:31:05 10° N visible
